Location: ??
(35.4627°N, 139.3695°E)
Time: 05:09:05
(UTC+00:00)

H-2A R/B - Pass Details

Date: 25 November 2020
Orbit: 499 x 540 km, 97.3° (Epoch: 14 January)

Event Time Altitude Azimuth Distance (km) Brightness Sun altitude
Rises 19:48:09 0° 21° (NNE) 2,703 6.5 -20.2°
Reaches altitude 10° 19:50:24 10° 30° (NNE) 1,804 5.6 -19.7°
Maximum altitude 19:54:01 36° 98° (E) 863 4.4 -19.0°
Drops below altitude 10° 19:57:35 10° 166° (SSE) 1,777 5.8 -18.3°
Sets 19:59:47 0° 174° (S) 2,656 6.6 -17.9°
